College Park, MD

1:57 AM EDT on April 25, 2018 (GMT -0400)
College Park

Weather History for KCGS - February, 2014

Change the Weather History Date:

Monday, February 24, 2014

  Actual Average Record
Temperature  
Mean Temperature 40 °F -  
Max Temperature 45 °F 50 °F 74 °F (1985)
Min Temperature 35 °F 31 °F 6 °F (2015)
Degree Days  
Heating Degree Days 25    
Moisture  
Dew Point 15 °F    
Average Humidity 38    
Maximum Humidity 77    
Minimum Humidity 17    
Precipitation  
Precipitation 0.00 in - - ()
Sea Level Pressure  
Sea Level Pressure 30.04 in    
Wind  
Wind Speed 8 mph (WNW)    
Max Wind Speed 20 mph    
Max Gust Speed 34 mph    
Visibility 10 miles    
Events      
Averages and records for this station are not official NWS values.
T = Trace of Precipitation, MM = Missing Value Source: NWS Daily Summary

Daily Weather History Graph

Daily Weather History Graph

Search for Another Location

Airport or City:

Astronomy

Feb. 24, 2014 Rise Set
Actual Time 6:47 AM EST 5:55 PM EST
Civil Twilight 6:20 AM EST 6:21 PM EST
Nautical Twilight 5:49 AM EST 6:52 PM EST
Astronomical Twilight 5:18 AM EST 7:23 PM EST
Moon 2:42 AM EST (2/24) 12:55 PM EST (2/24)
Length of Visible Light 12h 01m
Length of Day
11h 07m
Waning Crescent, 28% of the Moon is Illuminated
Feb 24
Waning Crescent
Mar 1
New
Mar 8
First Quarter
Mar 16
Full
Mar 23
Last Quarter

Hourly Weather History & Observations

Time (EST) Temp. Windchill Dew Point Humidity Pressure Visibility Wind Dir Wind Speed Gust Speed Precip Events Conditions
12:10 AM 45.5 °F 41.8 °F 36.9 °F 72% 29.93 in 10.0 mi NNW 6.9 mph - N/A   Overcast
12:30 AM 44.1 °F 39.5 °F 36.3 °F 74% 29.95 in 10.0 mi NNW 8.1 mph - N/A   Overcast
12:50 AM 43.5 °F 38.3 °F 36.5 °F 76% 29.95 in 10.0 mi North 9.2 mph - N/A   Overcast
1:10 AM 42.1 °F 39.2 °F 35.4 °F 77% 29.94 in 10.0 mi NNW 4.6 mph - N/A   Overcast
1:30 AM 42.3 °F 37.9 °F 34.3 °F 74% 29.94 in 10.0 mi NNW 6.9 mph - N/A   Overcast
1:50 AM 42.4 °F 40.7 °F 34.0 °F 72% 29.94 in 10.0 mi NW 3.5 mph - N/A   Overcast
2:10 AM 42.8 °F - 33.8 °F 70% 29.94 in 10.0 mi Calm Calm - N/A   Overcast
2:30 AM 43.0 °F 40.3 °F 32.4 °F 66% 29.94 in 10.0 mi NNW 4.6 mph - N/A   Overcast
2:50 AM 43.0 °F 40.3 °F 31.3 °F 63% 29.94 in 10.0 mi NW 4.6 mph - N/A   Overcast
3:10 AM 43.2 °F 39.7 °F 30.2 °F 60% 29.94 in 10.0 mi NNW 5.8 mph - N/A   Overcast
3:30 AM 42.8 °F 41.1 °F 29.3 °F 59% 29.94 in 10.0 mi NNW 3.5 mph - N/A   Overcast
3:50 AM 42.4 °F 38.1 °F 28.8 °F 58% 29.94 in 10.0 mi NW 6.9 mph - N/A   Mostly Cloudy
4:10 AM 41.9 °F 39.0 °F 28.0 °F 58% 29.94 in 10.0 mi NNW 4.6 mph - N/A   Scattered Clouds
4:30 AM 41.4 °F 38.4 °F 27.3 °F 57% 29.95 in 10.0 mi NW 4.6 mph - N/A   Clear
4:50 AM 40.6 °F 38.6 °F 27.5 °F 59% 29.95 in 10.0 mi West 3.5 mph - N/A   Clear
5:10 AM 40.5 °F 35.1 °F 25.7 °F 56% 29.96 in 10.0 mi West 8.1 mph - N/A   Clear
5:30 AM 39.7 °F 34.9 °F 24.1 °F 54% 29.97 in 10.0 mi West 6.9 mph - N/A   Clear
5:50 AM 39.0 °F 36.8 °F 23.0 °F 53% 29.97 in 10.0 mi WSW 3.5 mph - N/A   Clear
6:10 AM 38.3 °F 34.8 °F 22.1 °F 52% 29.99 in 10.0 mi West 4.6 mph - N/A   Clear
6:25 AM 38.3 °F 33.9 °F 21.6 °F 51% 29.99 in 10.0 mi West 5.8 mph - N/A   Clear
6:50 AM 37.8 °F 32.5 °F 20.8 °F 51% 30.00 in 10.0 mi West 6.9 mph - N/A   Clear
7:10 AM 37.8 °F 31.8 °F 20.1 °F 49% 30.00 in 10.0 mi WNW 8.1 mph - N/A   Clear
7:30 AM 38.3 °F 33.2 °F 19.8 °F 47% 30.01 in 10.0 mi WNW 6.9 mph - N/A   Clear
7:50 AM 38.5 °F 33.4 °F 18.5 °F 45% 30.02 in 10.0 mi NW 6.9 mph - N/A   Clear
8:10 AM 39.0 °F 30.6 °F 15.1 °F 38% 30.03 in 10.0 mi WNW 15.0 mph 18.4 mph N/A   Clear
8:30 AM 38.5 °F 31.1 °F 13.1 °F 35% 30.05 in 10.0 mi NW 11.5 mph - N/A   Clear
8:50 AM 38.7 °F 31.8 °F 12.9 °F 35% 30.05 in 10.0 mi NW 10.4 mph - N/A   Clear
9:10 AM 38.5 °F 32.1 °F 13.3 °F 36% 30.05 in 10.0 mi WNW 9.2 mph 17.3 mph N/A   Clear
9:25 AM 39.6 °F 34.0 °F 12.7 °F 33% 30.04 in 10.0 mi NW 8.1 mph - N/A   Clear
9:50 AM 40.1 °F 33.6 °F 12.2 °F 32% 30.05 in 10.0 mi WNW 10.4 mph 18.4 mph N/A   Clear
10:10 AM 40.3 °F 33.0 °F 11.7 °F 31% 30.07 in 10.0 mi NW 12.7 mph 19.6 mph N/A   Clear
10:30 AM 41.0 °F 33.9 °F 10.8 °F 29% 30.06 in 10.0 mi West 12.7 mph 20.7 mph N/A   Clear
10:50 AM 41.0 °F 32.5 °F 9.3 °F 27% 30.06 in 10.0 mi West 17.3 mph 23.0 mph N/A   Clear
11:10 AM 41.5 °F 34.6 °F 7.9 °F 25% 30.07 in 10.0 mi West 12.7 mph 26.5 mph N/A   Clear
11:30 AM 42.4 °F 35.0 °F 8.6 °F 25% 30.05 in 10.0 mi WNW 15.0 mph 25.3 mph N/A   Clear
11:50 AM 42.8 °F 36.6 °F 8.1 °F 24% 30.05 in 10.0 mi West 11.5 mph 24.2 mph N/A   Clear
12:10 PM 42.8 °F 35.1 °F 7.7 °F 24% 30.04 in 10.0 mi WNW 16.1 mph 23.0 mph N/A   Clear
12:30 PM 43.5 °F 36.1 °F 7.7 °F 23% 30.02 in 10.0 mi NW 16.1 mph 21.9 mph N/A   Clear
12:50 PM 44.2 °F 37.6 °F 5.9 °F 21% 30.02 in 10.0 mi West 13.8 mph 25.3 mph N/A   Clear
1:10 PM 45.3 °F 39.3 °F 5.0 °F 19% 30.00 in 10.0 mi West 12.7 mph 26.5 mph N/A   Clear
1:30 PM 45.1 °F 37.9 °F 3.0 °F 18% 30.00 in 10.0 mi West 17.3 mph 27.6 mph N/A   Clear
1:50 PM 45.5 °F 38.1 °F 3.6 °F 18% 29.99 in 10.0 mi NW 18.4 mph 29.9 mph N/A   Clear
2:10 PM 45.0 °F 37.1 °F 2.5 °F 17% 29.99 in 10.0 mi WNW 19.6 mph 34.5 mph N/A   Clear
2:30 PM 45.0 °F 38.5 °F 3.9 °F 18% 30.01 in 10.0 mi WNW 13.8 mph 32.2 mph N/A   Clear
2:50 PM 45.1 °F 38.8 °F 3.2 °F 18% 30.02 in 10.0 mi WNW 13.8 mph 27.6 mph N/A   Clear
3:10 PM 45.5 °F 38.1 °F 5.9 °F 20% 30.02 in 10.0 mi WNW 18.4 mph 27.6 mph N/A   Clear
3:30 PM 44.6 °F 37.2 °F 7.0 °F 21% 30.03 in 10.0 mi West 17.3 mph 27.6 mph N/A   Clear
3:50 PM 44.4 °F 36.4 °F 2.3 °F 18% 30.04 in 10.0 mi WNW 19.6 mph 29.9 mph N/A   Clear
4:10 PM 43.7 °F 36.0 °F 2.8 °F 18% 30.04 in 10.0 mi WNW 17.3 mph 27.6 mph N/A   Clear
4:30 PM 43.2 °F 36.2 °F 4.1 °F 20% 30.06 in 10.0 mi West 13.8 mph 26.5 mph N/A   Clear
4:50 PM 42.8 °F 36.2 °F 6.3 °F 22% 30.06 in 10.0 mi WNW 12.7 mph 24.2 mph N/A   Clear
5:10 PM 41.9 °F 34.0 °F 5.7 °F 22% 30.07 in 10.0 mi WNW 16.1 mph 23.0 mph N/A   Clear
5:30 PM 41.0 °F 32.2 °F 6.1 °F 24% 30.07 in 10.0 mi NW 18.4 mph 27.6 mph N/A   Clear
5:50 PM 40.1 °F 33.6 °F 7.0 °F 25% 30.08 in 10.0 mi WNW 10.4 mph 21.9 mph N/A   Clear
6:10 PM 39.4 °F 33.2 °F 7.7 °F 27% 30.09 in 10.0 mi West 9.2 mph 19.6 mph N/A   Clear
6:30 PM 39.0 °F 32.3 °F 8.8 °F 29% 30.11 in 10.0 mi West 10.4 mph 18.4 mph N/A   Clear
6:50 PM 38.8 °F 33.8 °F 9.1 °F 29% 30.11 in 10.0 mi West 6.9 mph 16.1 mph N/A   Clear
7:10 PM 38.5 °F 32.1 °F 9.5 °F 30% 30.12 in 10.0 mi West 9.2 mph - N/A   Clear
7:30 PM 38.3 °F 32.5 °F 9.7 °F 31% 30.12 in 10.0 mi West 8.1 mph 17.3 mph N/A   Clear
7:50 PM 38.1 °F 32.3 °F 9.7 °F 31% 30.13 in 10.0 mi West 8.1 mph - N/A   Clear
8:10 PM 37.8 °F 31.8 °F 9.5 °F 31% 30.13 in 10.0 mi WNW 8.1 mph - N/A   Clear
8:30 PM 37.4 °F 32.8 °F 9.5 °F 32% 30.14 in 10.0 mi West 5.8 mph - N/A   Clear
8:50 PM 37.0 °F 32.4 °F 9.3 °F 32% 30.14 in 10.0 mi WNW 5.8 mph - N/A   Clear
9:10 PM 36.5 °F 32.7 °F 9.5 °F 33% 30.15 in 10.0 mi WNW 4.6 mph - N/A   Clear
9:30 PM 36.5 °F 31.0 °F 9.5 °F 33% 30.15 in 10.0 mi WNW 6.9 mph - N/A   Clear
9:50 PM 36.5 °F - 9.5 °F 33% 30.15 in 10.0 mi Calm Calm - N/A   Clear
10:10 PM 36.3 °F 33.7 °F 9.9 °F 33% 30.15 in 10.0 mi West 3.5 mph - N/A   Clear
10:30 PM 36.0 °F 31.1 °F 10.2 °F 34% 30.14 in 10.0 mi West 5.8 mph - N/A   Clear
10:50 PM 36.0 °F - 9.5 °F 33% 30.15 in 10.0 mi Calm Calm - N/A   Clear
11:10 PM 35.4 °F 32.6 °F 10.0 °F 35% 30.14 in 10.0 mi WNW 3.5 mph - N/A   Clear
11:30 PM 35.4 °F - 9.7 °F 34% 30.15 in 10.0 mi Calm Calm - N/A   Clear
11:50 PM 35.1 °F 31.0 °F 10.0 °F 35% 30.14 in 10.0 mi West 4.6 mph - N/A   Clear